Terug naar catalogus

CZ-6A DEB

ActiefPO
NORAD 60627·DEBRIS·🇨🇳 China

Gelanceerd Aug 6, 2024 vanaf Taiyuan Satellite Launch Center

Loading…

Volgende Passages (komende 24 uur)

TLE

VersSource: Space-Track

Epoch: Sep 14, 2026, 02:54 UTC

1 60627U 24140AC  26257.12147684 -.00000280  00000-0 -30210-3 0  9998
2 60627  88.0630 204.7165 0539252 234.6333 120.3282 13.25546372101629

Volg CZ-6A DEB in realtime met AllMySat

Download on the App Store